Weather History for KNIP - June, 2014

Change the Weather History Date:

Friday, June 6, 2014

  Actual Average Record
Temperature  
Mean Temperature 85 °F -  
Max Temperature 95 °F 86 °F 96 °F (1998)
Min Temperature 75 °F 71 °F 64 °F (1997)
Cooling Degree Days 20    
Growing Degree Days 35 (Base 50)    
Moisture  
Dew Point 70 °F    
Average Humidity 67    
Maximum Humidity 85    
Minimum Humidity 43    
Precipitation  
Precipitation 0.26 in - - ()
Sea Level Pressure  
Sea Level Pressure 29.92 in    
Wind  
Wind Speed 8 mph (WSW)    
Max Wind Speed 14 mph    
Max Gust Speed -    
Visibility 9 miles    
Events Rain , Thunderstorm    
Averages and records for this station are not official NWS values.
T = Trace of Precipitation, MM = Missing Value Source: NWS Daily Summary

Daily Weather History Graph

Daily Weather History Graph

Search for Another Location

Airport or City:

Trip Planner

Search our weather history database for the weather conditions in past years. The results will help you decide how hot, cold, wet, or windy it might be!

Date:

Astronomy

Jun. 06, 2014 Rise Set
Actual Time 6:24 AM EDT 8:26 PM EDT
Civil Twilight 5:57 AM EDT 8:53 PM EDT
Nautical Twilight 5:24 AM EDT 9:26 PM EDT
Astronomical Twilight 4:48 AM EDT 10:02 PM EDT
Moon 2:09 PM EDT (6/6) 1:48 AM EDT (6/6)
Length of Visible Light 14h 56m
Length of Day
14h 01m
First Quarter, 58% of the Moon is Illuminated
Jun 6
First Quarter
Jun 13
Full
Jun 19
Last Quarter
Jun 27
New
Jul 5
First Quarter

Hourly Weather History & Observations

Time (EDT) Temp. Heat Index Dew Point Humidity Pressure Visibility Wind Dir Wind Speed Gust Speed Precip Events Conditions
12:53 AM 82.0 °F 84.5 °F 66.9 °F 60% 29.92 in 10.0 mi SSW 6.9 mph - N/A   Scattered Clouds
1:53 AM 80.1 °F 82.7 °F 68.0 °F 67% 29.88 in 10.0 mi SSW 11.5 mph - N/A   Partly Cloudy
2:53 AM 78.1 °F - 66.9 °F 68% 29.91 in 10.0 mi NNW 3.5 mph - N/A   Partly Cloudy
3:53 AM 77.0 °F - 66.9 °F 71% 29.89 in 10.0 mi WSW 6.9 mph - N/A   Scattered Clouds
4:53 AM 75.0 °F - 66.9 °F 76% 29.91 in 10.0 mi West 4.6 mph - N/A   Partly Cloudy
5:53 AM 75.9 °F - 68.0 °F 76% 29.92 in 10.0 mi West 6.9 mph - N/A   Partly Cloudy
6:53 AM 75.9 °F - 69.1 °F 79% 29.95 in 10.0 mi WNW 10.4 mph - N/A   Scattered Clouds
7:53 AM 78.1 °F - 69.1 °F 74% 29.96 in 9.0 mi WNW 8.1 mph - N/A   Mostly Cloudy
8:53 AM 80.1 °F 82.7 °F 68.0 °F 67% 29.97 in 9.0 mi NW 5.8 mph - N/A   Mostly Cloudy
9:53 AM 82.9 °F 87.0 °F 70.0 °F 65% 29.97 in 10.0 mi Variable 3.5 mph - N/A   Scattered Clouds
10:53 AM 87.1 °F 92.0 °F 70.0 °F 57% 29.95 in 10.0 mi ESE 8.1 mph - N/A   Scattered Clouds
11:53 AM 89.1 °F 95.0 °F 71.1 °F 55% 29.94 in 10.0 mi ESE 9.2 mph - N/A   Scattered Clouds
12:53 PM 91.0 °F 96.6 °F 70.0 °F 50% 29.92 in 10.0 mi SSE 8.1 mph - N/A   Scattered Clouds
1:53 PM 93.0 °F 99.0 °F 70.0 °F 47% 29.90 in 10.0 mi SSE 9.2 mph - N/A   Scattered Clouds
2:53 PM 93.9 °F 99.1 °F 69.1 °F 44% 29.88 in 10.0 mi SSE 9.2 mph - N/A   Scattered Clouds
3:53 PM 95.0 °F 100.7 °F 69.1 °F 43% 29.88 in 10.0 mi South 9.2 mph - N/A   Mostly Cloudy
4:23 PM 95.0 °F 100.7 °F 69.1 °F 43% 29.88 in 10.0 mi South 9.2 mph - N/A Thunderstorm Thunderstorm
4:53 PM 93.9 °F 100.8 °F 71.1 °F 47% 29.88 in 10.0 mi South 12.7 mph - N/A Thunderstorm Thunderstorm
4:56 PM 93.0 °F 101.9 °F 73.0 °F 52% 29.89 in 10.0 mi South 12.7 mph - 0.00 in Rain , Thunderstorm Light Thunderstorms and Rain
5:33 PM 84.0 °F 90.2 °F 73.0 °F 69% 29.91 in 2.5 mi WSW 13.8 mph - 0.07 in Rain , Thunderstorm Heavy Thunderstorms and Rain
5:53 PM 80.1 °F 83.2 °F 70.0 °F 71% 29.89 in 2.5 mi SW 12.7 mph - 0.21 in Rain , Thunderstorm Thunderstorms and Rain
6:11 PM 81.0 °F 84.4 °F 70.0 °F 69% 29.91 in 4.0 mi West 4.6 mph - 0.00 in Rain , Thunderstorm Light Thunderstorms and Rain
6:23 PM 82.0 °F 86.7 °F 72.0 °F 71% 29.88 in 10.0 mi South 3.5 mph - 0.00 in   Mostly Cloudy
6:53 PM 81.0 °F 85.2 °F 72.0 °F 74% 29.88 in 10.0 mi East 3.5 mph - 0.00 in   Mostly Cloudy
7:40 PM 81.0 °F 85.8 °F 73.0 °F 77% 29.92 in 10.0 mi NNW 3.5 mph - 0.00 in Rain Light Rain
7:53 PM 81.0 °F 85.8 °F 73.0 °F 77% 29.93 in 10.0 mi NNW 5.8 mph - 0.00 in Rain Light Rain
8:01 PM 80.1 °F 83.8 °F 72.0 °F 76% 29.93 in 7.0 mi NW 3.5 mph - 0.00 in Rain , Thunderstorm Light Thunderstorms and Rain
8:30 PM 79.0 °F - 71.1 °F 77% 29.94 in 10.0 mi NW 9.2 mph - 0.00 in Rain Light Rain
8:53 PM 78.1 °F - 71.1 °F 79% 29.91 in 10.0 mi Calm Calm - 0.00 in   Mostly Cloudy
9:53 PM 75.0 °F - 70.0 °F 84% 29.96 in 9.0 mi NW 10.4 mph - 0.02 in Rain Rain
10:53 PM 75.9 °F - 71.1 °F 85% 29.94 in 10.0 mi SW 9.2 mph - 0.03 in Rain Light Rain
11:53 PM 77.0 °F - 71.1 °F 82% 29.98 in 10.0 mi North 8.1 mph - 0.00 in   Overcast